Flag for U.S.A. Weather past 2 weeks in Lexington, Virginia, U.S.A.

Now
40 °F

Snow. Low clouds.


Feels Like: 33 °F
Forecast: 26 / 41 °F
Wind: 13 mph from Southwest

Location: Hot Springs / Ingalls

Current Time: Mar 3, 2015 at 6:23:21 PM

Latest Report: Mar 3, 2015 at 5:55 PM


Visibility: 0 mi

Pressure: 29.94 "Hg

Humidity: 100%

Dew point: 40 °F

Location of LexingtonLocation

Historic Weather in Lexington — Graph

°F

Lexington temperature yesterday

Maximum temperature yesterday: 40 °F (at 12:15 AM)
Minimum temperature yesterday: 26 °F (at 10:55 PM)
Average temperature yesterday: 33 °F

Past Weeks' High & Low Weather Summary

 TemperatureHumidityPressure
High41 °F (Feb 22, 3:55 PM)100% (Feb 21, 5:15 PM)30.52 "Hg (Feb 21, 5:15 PM)
Low-11 °F (Feb 20, 7:15 AM)16% (Feb 20, 6:55 PM)29.51 "Hg (Feb 18, 1:15 PM)
Average19 °F74%29.99 "Hg
* Reported Feb 16 5:15 PM — Mar 3 5:15 PM, Lexington, Weather by CustomWeather, © 2015

Note: Actual official high and low records may vary slightly from our data, if they occured in-between our weather recording intervals... More about our weather records

Advertising

Lexington weather history for previous 24 hours

 ConditionsComfort  
Time TempWeatherWind HumidityBarometerVisibility
5:15 PM
Tue, Mar 3
39 °FLight rain. Low clouds.9 mph100%29.95 "Hg0 mi
4:55 PM38 °FLight rain. Low clouds.14 mph100%29.97 "Hg0 mi
4:15 PM35 °FFog.12 mph100%29.98 "Hg0 mi
3:55 PM35 °FFog.10 mph100%29.98 "Hg0 mi
3:35 PM34 °FFog.14 mph100%29.99 "Hg0 mi
3:15 PM33 °FLight snow. Low clouds.15 mph100%29.99 "Hg0 mi
2:35 PM31 °FIce fog.10 mph100%30.01 "Hg0 mi
2:15 PM32 °FFog.12 mph100%30.02 "Hg0 mi
1:55 PM31 °FIce fog.12 mph100%30.03 "Hg0 mi
1:35 PM29 °FLight snow. Low clouds.10 mph100%30.04 "Hg0 mi
1:15 PM29 °FLight snow. Low clouds.13 mph100%30.06 "Hg0 mi
12:55 PM29 °FLight snow. Low clouds.12 mph100%30.08 "Hg0 mi
12:35 PM27 °FLight snow. Low clouds.13 mph100%30.09 "Hg0 mi
12:15 PM25 °FLight snow. Low clouds.12 mph100%30.10 "Hg0 mi
11:55 AM25 °FLight snow. Low clouds.9 mph100%30.12 "Hg0 mi
11:35 AM25 °FLight snow. Low clouds.9 mph100%30.13 "Hg0 mi
11:15 AM24 °FIce fog.13 mph100%30.13 "Hg0 mi
10:55 AM24 °FIce fog.10 mph100%30.14 "Hg0 mi
10:35 AM24 °FIce fog.10 mph100%30.15 "Hg0 mi
10:15 AM24 °FIce fog.12 mph100%30.16 "Hg2 mi
9:55 AM24 °FLight snow. More clouds than sun.8 mph96%30.17 "Hg5 mi
9:35 AM24 °FLow clouds.10 mph85%30.18 "Hg7 mi
9:15 AM24 °FLow clouds.10 mph77%30.19 "Hg10 mi
8:55 AM25 °FMostly cloudy.10 mph73%30.19 "Hg10 mi
8:35 AM25 °FOvercast.13 mph73%30.19 "Hg10 mi
8:15 AM25 °FOvercast.12 mph70%30.20 "Hg10 mi
7:55 AM26 °FOvercast.14 mph69%30.18 "Hg10 mi
7:35 AM26 °FOvercast.13 mph69%30.17 "Hg10 mi
7:15 AM26 °FOvercast.16 mph70%30.17 "Hg10 mi
6:55 AM26 °FMore clouds than sun.16 mph72%30.18 "Hg10 mi
6:35 AM26 °FMostly cloudy.12 mph75%30.19 "Hg10 mi
6:15 AM26 °FLow clouds.12 mph78%30.19 "Hg10 mi
5:55 AM26 °FLow clouds.13 mph75%30.19 "Hg10 mi
5:35 AM26 °FLow clouds.12 mph69%30.17 "Hg10 mi
5:15 AM26 °FLow clouds.13 mph68%30.16 "Hg10 mi
4:55 AM26 °FLow clouds.15 mph66%30.16 "Hg10 mi
4:35 AM26 °FPassing clouds.14 mph61%30.17 "Hg10 mi
4:15 AM26 °FPassing clouds.10 mph60%30.17 "Hg10 mi
3:55 AM26 °FClear.10 mph57%30.17 "Hg10 mi
3:35 AM27 °FClear.10 mph55%30.17 "Hg10 mi
3:15 AM28 °FPassing clouds.9 mph54%30.16 "Hg10 mi
2:55 AM28 °FMostly cloudy.9 mph54%30.17 "Hg10 mi
2:35 AM28 °FOvercast.9 mph51%30.17 "Hg10 mi
2:15 AM29 °FOvercast.10 mph50%30.18 "Hg10 mi
1:55 AM28 °FPartly cloudy.7 mph51%30.19 "Hg10 mi
1:35 AM29 °FClear.7 mph49%30.20 "Hg10 mi
1:15 AM29 °FClear.6 mph49%30.21 "Hg10 mi
12:55 AM28 °FClear.No wind50%30.21 "Hg10 mi
12:15 AM29 °FPassing clouds.No wind44%30.22 "Hg10 mi
11:55 PM
Mon, Mar 2
28 °FPassing clouds.No wind49%30.22 "Hg10 mi
11:35 PM26 °FClear.No wind53%30.23 "Hg10 mi
11:15 PM26 °FClear.No wind49%30.24 "Hg10 mi
10:55 PM26 °FClear.No wind52%30.25 "Hg10 mi
10:35 PM26 °FClear.No wind48%30.25 "Hg10 mi
9:55 PM27 °FClear.No wind48%30.25 "Hg10 mi
9:15 PM27 °FClear.8 mph51%30.25 "Hg10 mi
8:55 PM27 °FClear.10 mph52%30.24 "Hg10 mi
8:35 PM28 °FClear.8 mph52%30.25 "Hg10 mi
8:15 PM28 °FClear.5 mph50%30.25 "Hg10 mi
7:55 PM28 °FClear.3 mph49%30.24 "Hg10 mi
7:35 PM29 °FClear.No wind49%30.23 "Hg10 mi
7:15 PM29 °FClear.5 mph50%30.23 "Hg10 mi
6:55 PM30 °FClear.No wind47%30.23 "Hg10 mi
6:35 PM30 °FClear.No wind42%30.22 "Hg10 mi
6:15 PM31 °FClear.6 mph41%30.21 "Hg10 mi
Weather by CustomWeather, © 2015

See weather overviewHow to use our weather pages